[[{"header":{"parameterUnit":"m.s-1","parameterCategory":1,"la1":30.2991,"la2":30.254,"lo1":-89.0895,"lo2":-89.0444,"dy":0.0017,"dx":0.0017,"nx":28,"ny":28,"refTime":"2024-10-07T03:00:00:Z","depth":0,"parameterNumber":2,"parameterNumberName":"U-component_of_WINDS"},"data":[0,0,0,0,0,0,0,0,0,0,0,0,0,0,0,0,0,0,0,0,0,0,0,0,0,0,0,0,0,0,0,0,0,0,0,0,0,0,0,0,0,0,0,0,0,0,0,0,0,0,0,0,0,0,0,0,0,0,-0.8886,-0.8886,0,-0.892,-0.892,-0.892,-0.8897,-0.8896,-0.8895,-0.8894,-0.8929,-0.8931,-0.8932,0,0,0,0,0,0,0,0,0,0,0,0,0,-0.88,-0.8802,-0.8886,-0.8886,-0.8887,-0.892,-0.892,-0.892,-0.8897,-0.8896,-0.8894,-0.8893,-0.8928,-0.893,-0.8933,0,0,0,0,0,0,0,0,0,0,0,0,0,-0.8836,-0.8803,-0.8886,-0.8879,-0.8879,-0.8919,-0.892,-0.8921,-0.8897,-0.8896,-0.8894,-0.8893,-0.8927,-0.893,-0.8933,-0.8983,0,0,-0.8942,-0.8943,0,0,0,0,0,0,0,0,-0.8834,-0.8839,-0.8879,-0.8879,-0.8879,-0.8902,-0.8903,-0.8941,-0.8898,-0.889,-0.8894,-0.8892,-0.8921,-0.8925,-0.8934,-0.8984,-0.8986,-0.8942,-0.8944,-0.8945,-0.8946,0,0,0,0,0,0,0,-0.8832,-0.8838,-0.8899,-0.888,-0.888,-0.8874,-0.8877,-0.891,-0.8914,-0.8891,-0.8889,-0.8893,-0.8921,-0.8932,-0.8935,-0.8986,-0.8942,-0.8945,-0.8946,-0.8947,-0.9078,-0.908,0,0,0,0,0,0,-0.883,-0.8836,-0.8898,-0.89,-0.8852,-0.8877,-0.888,-0.8896,-0.8914,-0.8915,-0.8895,-0.8892,-0.8928,-0.8932,-0.8936,-0.8996,-0.8945,-0.8948,-0.8949,-0.9077,-0.9079,-0.9081,0,0,0,0,0,0,-0.8828,-0.8836,-0.8897,-0.8868,-0.8875,-0.888,-0.8898,-0.8898,-0.8909,-0.8917,-0.8917,-0.8905,-0.8926,-0.8932,-0.8971,-0.8997,-0.8949,-0.8952,-0.9075,-0.9077,-0.908,-0.9116,0,0,0,0,0,0,-0.8826,-0.8835,-0.8854,-0.8868,-0.8877,-0.8932,-0.89,-0.89,-0.8914,-0.8911,-0.8927,-0.8928,-0.8926,-0.8967,-0.8974,-0.9,-0.8954,-0.9072,-0.9076,-0.9079,-0.9112,-0.9119,-0.9125,0,0,0,0,0,-0.8823,-0.8863,-0.8855,-0.8863,-0.8901,-0.8933,-0.8938,-0.8934,-0.8916,-0.8935,-0.894,-0.8927,-0.8992,-0.8971,-0.8979,-0.9006,-0.9071,-0.9075,-0.9079,-0.9109,-0.9118,-0.9125,0,0,0,0,0,0,-0.8853,-0.8865,-0.8857,-0.8903,-0.8917,-0.8929,-0.8953,-0.8943,-0.8964,-0.896,-0.8955,-0.8958,-0.9,-0.9006,-0.8983,-0.9055,-0.9029,-0.9034,-0.9049,-0.9057,-0.9064,-0.9062,-0.8956,0,0,0,0,0,-0.8865,-0.889,-0.8899,-0.8939,-0.8946,-0.8949,-0.8963,-0.8959,-0.8973,-0.8979,-0.8987,-0.9002,-0.9026,-0.9042,-0.9064,-0.9112,-0.9115,-0.9134,-0.9141,-0.9146,-0.9152,-0.9178,-0.9187,-0.9093,-0.9093,-0.9093,0,0,-0.889,-0.8899,-0.8916,-0.8945,-0.8956,-0.8982,-0.8954,-0.8983,-0.9003,-0.8984,-0.9022,-0.9027,-0.9043,-0.9088,-0.9107,-0.9095,-0.9178,-0.9151,-0.9155,-0.9158,-0.9183,-0.9192,-0.9199,-0.9096,-0.9096,-0.9095,0,0,-0.8949,-0.8959,-0.8993,-0.9004,-0.902,-0.9021,-0.9029,-0.9043,-0.9046,-0.9083,-0.907,-0.9092,-0.9133,-0.9146,-0.9157,-0.9219,-0.9209,-0.9227,-0.9261,-0.9287,-0.9294,-0.93,-0.9323,-0.9332,-0.9232,-0.9232,-0.9232,0,-0.8979,-0.9018,-0.9012,-0.9043,-0.9056,-0.9039,-0.9074,-0.9084,-0.9107,-0.9117,-0.9102,-0.9152,-0.9162,-0.9209,-0.9224,-0.9233,-0.9243,-0.9226,-0.9293,-0.93,-0.9306,-0.9328,-0.9336,-0.9234,-0.9234,-0.9233,-0.9233,0,-0.9054,-0.9081,-0.9107,-0.9129,-0.9145,-0.9177,-0.9176,-0.9193,-0.9187,-0.9189,-0.9227,-0.9238,-0.9262,-0.9272,-0.9267,-0.9318,-0.9309,-0.9294,-0.9268,-0.9317,-0.9338,-0.9346,-0.9237,-0.9236,-0.9236,-0.9235,0,0,-0.9135,-0.9153,-0.9163,-0.9172,-0.9188,-0.9209,-0.924,-0.9263,-0.9278,-0.9294,-0.932,-0.9354,-0.934,-0.9353,-0.9348,-0.937,-0.942,-0.9352,-0.9352,-0.9365,-0.9477,-0.949,-0.95,-0.9411,-0.9413,-0.9414,-0.9476,0,-0.9197,-0.9251,-0.9246,-0.9298,-0.9324,-0.9307,-0.9334,-0.9346,-0.9349,-0.937,-0.9373,-0.9398,-0.9376,-0.9384,-0.9405,-0.9409,-0.9442,-0.9404,-0.9437,-0.9438,-0.9435,-0.9511,-0.9524,-0.9583,-0.9484,-0.9486,-0.9486,0,-0.9276,-0.9295,-0.9349,-0.936,-0.9371,-0.9395,-0.9416,-0.9437,-0.945,-0.945,-0.9464,-0.9455,-0.9486,-0.9458,-0.9501,-0.9475,-0.9487,-0.9491,-0.9493,-0.9498,-0.9467,-0.9518,-0.9601,-0.961,-0.9499,-0.9498,-0.9497,0,-0.9332,-0.937,-0.9407,-0.9416,-0.943,-0.9448,-0.9454,-0.9466,-0.948,-0.9498,-0.9507,-0.9528,-0.954,-0.9556,-0.9553,-0.9532,-0.9597,-0.9568,-0.9598,-0.9598,-0.9614,-0.9614,-0.9702,-0.9619,-0.9619,-0.9619,-0.9619,0,-0.9402,-0.9436,-0.9432,-0.9456,-0.9493,-0.9486,-0.9524,-0.9528,-0.9538,-0.9562,-0.9548,-0.9571,-0.9564,-0.9587,-0.9584,-0.962,-0.9625,-0.9626,-0.9626,-0.9629,-0.9629,-0.9638,-0.9635,-0.9621,-0.9621,-0.9621,-0.962,0,-0.9472,-0.947,-0.951,-0.952,-0.9523,-0.955,-0.9558,-0.958,-0.958,-0.9611,-0.9617,-0.9618,-0.9643,-0.9641,-0.967,-0.9668,-0.9713,-0.9706,-0.9709,-0.9708,-0.9739,-0.9736,-0.9837,-0.985,-0.9758,-0.9759,-0.976,0,-0.9517,-0.9543,-0.9555,-0.957,-0.9578,-0.9602,-0.9616,-0.9609,-0.9625,-0.9641,-0.9661,-0.9685,-0.9704,-0.9744,-0.9748,-0.9769,-0.9764,-0.9798,-0.9767,-0.9769,-0.9766,-0.9765,-0.9768,-0.9805,-0.9806,-0.9806,-0.9807,0,-0.9599,-0.9597,-0.9618,-0.9638,-0.9656,-0.9671,-0.9686,-0.9698,-0.9693,-0.9711,-0.9736,-0.9751,-0.9779,-0.9803,-0.9823,-0.983,-0.9818,-0.9816,-0.9825,-0.9829,-0.983,-0.9831,-0.9727,-0.9815,-0.9814,-0.9813,-0.9813,-0.9813,-0.9659,-0.9681,-0.9693,-0.9717,-0.9727,-0.974,-0.9761,-0.9764,-0.9785,-0.9808,-0.9802,-0.9831,-0.9843,-0.9868,-0.9876,-0.9899,-0.9887,-0.9898,-0.9902,-0.9905,-0.9909,-0.9824,-0.9902,-0.9902,-0.9902,-0.9901,-0.9901,0,-0.9741,-0.9748,-0.9769,-0.979,-0.9808,-0.9794,-0.9809,-0.9826,-0.9851,-0.9863,-0.9881,-0.991,-0.9933,-0.9937,-0.9959,-0.9976,-0.9971,-0.9982,-0.9981,-0.9983,-0.9918,-0.991,-0.9985,-0.9985,-0.9985,-0.9985,-0.9985,-0.9985,-0.9787,-0.9824,-0.9822,-0.9864,-0.987,-0.9898,-0.9908,-0.992,-0.9929,-0.9962,-0.9981,-0.9983,-0.9992,-1.0014,-1.0034,-1.0034,-1.0044,-1.0057,-1.0056,-0.9996,-0.9988,-0.998,-0.9971,-1.0059,-1.0059,-1.0119,-1.0119,-1.012]},{"header":{"parameterUnit":"m.s-1","parameterCategory":1,"la1":30.2991,"la2":30.254,"lo1":-89.0895,"lo2":-89.0444,"dy":0.0017,"dx":0.0017,"nx":28,"ny":28,"refTime":"2024-10-07T03:00:00:Z","depth":0,"parameterNumber":3,"parameterNumberName":"V-component_of_WINDS"},"data":[0,0,0,0,0,0,0,0,0,0,0,0,0,0,0,0,0,0,0,0,0,0,0,0,0,0,0,0,0,0,0,0,0,0,0,0,0,0,0,0,0,0,0,0,0,0,0,0,0,0,0,0,0,0,0,0,0,0,-6.2147,-6.2148,0,-6.2232,-6.2232,-6.2233,-6.2143,-6.2139,-6.2136,-6.2133,-6.2214,-6.2219,-6.2224,0,0,0,0,0,0,0,0,0,0,0,0,0,-6.1901,-6.1906,-6.2147,-6.2148,-6.2149,-6.2231,-6.2232,-6.2234,-6.2143,-6.2139,-6.2135,-6.2131,-6.2212,-6.2218,-6.2225,0,0,0,0,0,0,0,0,0,0,0,0,0,-6.1999,-6.1907,-6.2147,-6.2114,-6.2112,-6.2231,-6.2233,-6.2234,-6.2144,-6.2139,-6.2134,-6.2129,-6.221,-6.2218,-6.2225,-6.2379,0,0,-6.225,-6.2254,0,0,0,0,0,0,0,0,-6.1993,-6.2008,-6.2118,-6.2116,-6.2114,-6.2171,-6.2175,-6.2282,-6.2146,-6.2132,-6.2133,-6.2127,-6.2203,-6.2212,-6.2239,-6.2383,-6.2386,-6.2251,-6.2256,-6.2259,-6.2261,0,0,0,0,0,0,0,-6.1986,-6.2003,-6.218,-6.2119,-6.2117,-6.2093,-6.2101,-6.2195,-6.2195,-6.2133,-6.2126,-6.2138,-6.2201,-6.2231,-6.224,-6.2388,-6.2251,-6.2258,-6.2263,-6.2266,-6.2661,-6.2667,0,0,0,0,0,0,-6.1984,-6.1998,-6.2177,-6.2183,-6.204,-6.2102,-6.2111,-6.2158,-6.2194,-6.2195,-6.2142,-6.2133,-6.222,-6.2231,-6.2242,-6.2425,-6.2259,-6.2267,-6.2271,-6.2656,-6.2663,-6.2669,0,0,0,0,0,0,-6.1979,-6.2001,-6.2174,-6.2089,-6.2109,-6.2112,-6.2165,-6.2163,-6.2192,-6.2202,-6.2201,-6.2173,-6.2216,-6.2231,-6.2346,-6.2426,-6.227,-6.2278,-6.2649,-6.2658,-6.2666,-6.2791,0,0,0,0,0,0,-6.1973,-6.2,-6.206,-6.2091,-6.2114,-6.2279,-6.217,-6.2168,-6.2207,-6.2196,-6.223,-6.2231,-6.2213,-6.2335,-6.2354,-6.2435,-6.2284,-6.2642,-6.2653,-6.2663,-6.278,-6.2803,-6.2823,0,0,0,0,0,-6.1964,-6.209,-6.2063,-6.2085,-6.2189,-6.2283,-6.2296,-6.2275,-6.2214,-6.2273,-6.2279,-6.223,-6.2414,-6.2347,-6.2368,-6.2453,-6.2637,-6.265,-6.2662,-6.277,-6.2798,-6.2822,0,0,0,0,0,0,-6.2066,-6.2094,-6.2064,-6.2205,-6.2243,-6.2268,-6.2342,-6.2306,-6.236,-6.2348,-6.2317,-6.2326,-6.2448,-6.2461,-6.2386,-6.2603,-6.2515,-6.2533,-6.259,-6.2617,-6.2638,-6.2632,-6.2291,0,0,0,0,0,-6.2105,-6.2182,-6.2201,-6.2323,-6.2343,-6.234,-6.238,-6.2361,-6.2398,-6.2413,-6.2427,-6.2464,-6.2529,-6.2574,-6.2635,-6.2781,-6.2787,-6.2849,-6.287,-6.2888,-6.2904,-6.2982,-6.301,-6.2711,-6.2711,-6.271,0,0,-6.2186,-6.2211,-6.2261,-6.2344,-6.2371,-6.2449,-6.2354,-6.244,-6.2497,-6.2425,-6.2536,-6.2547,-6.2586,-6.2717,-6.2776,-6.2732,-6.2987,-6.2904,-6.2918,-6.2924,-6.2998,-6.3026,-6.3051,-6.2719,-6.2718,-6.2716,0,0,-6.2374,-6.2401,-6.2506,-6.2535,-6.2579,-6.2575,-6.2601,-6.2632,-6.2638,-6.2748,-6.2696,-6.2762,-6.2877,-6.2906,-6.2936,-6.3136,-6.3092,-6.3156,-6.3268,-6.3344,-6.3368,-6.3389,-6.346,-6.3486,-6.3172,-6.3172,-6.3172,0,-6.2469,-6.2587,-6.2564,-6.2655,-6.2692,-6.2633,-6.2738,-6.2767,-6.2827,-6.2853,-6.2804,-6.2947,-6.2968,-6.3106,-6.3155,-6.3181,-6.3208,-6.3153,-6.3367,-6.3387,-6.3406,-6.3474,-6.3501,-6.318,-6.3179,-6.3178,-6.3177,0,-6.2701,-6.2783,-6.2862,-6.2925,-6.2971,-6.3068,-6.3058,-6.3107,-6.3084,-6.3086,-6.3198,-6.3222,-6.3288,-6.3318,-6.3295,-6.3453,-6.3425,-6.3372,-6.3283,-6.3443,-6.3506,-6.3531,-6.319,-6.3188,-6.3185,-6.3184,0,0,-6.2956,-6.3005,-6.3034,-6.3062,-6.3105,-6.3167,-6.3261,-6.3327,-6.337,-6.3413,-6.349,-6.3589,-6.354,-6.3574,-6.3554,-6.3621,-6.3778,-6.3559,-6.356,-6.3599,-6.3952,-6.3992,-6.4023,-6.3749,-6.3753,-6.3757,-6.3949,0,-6.3145,-6.3311,-6.3293,-6.345,-6.3525,-6.347,-6.3551,-6.3585,-6.3589,-6.3652,-6.3654,-6.3725,-6.3656,-6.3676,-6.374,-6.3745,-6.3848,-6.3731,-6.3819,-6.3823,-6.3812,-6.4056,-6.4098,-6.4278,-6.3974,-6.3978,-6.3981,0,-6.3388,-6.3443,-6.3609,-6.3641,-6.3671,-6.3745,-6.3804,-6.3865,-6.3902,-6.39,-6.3939,-6.3907,-6.3999,-6.3909,-6.4035,-6.3956,-6.399,-6.3998,-6.4005,-6.4012,-6.3912,-6.407,-6.4335,-6.4363,-6.4019,-6.4016,-6.4013,0,-6.3558,-6.3673,-6.3787,-6.3812,-6.3852,-6.3905,-6.3924,-6.3956,-6.3997,-6.4048,-6.4073,-6.4133,-6.4166,-6.4213,-6.4197,-6.4132,-6.4326,-6.4234,-6.4326,-6.4327,-6.437,-6.4368,-6.4645,-6.4392,-6.4391,-6.4391,-6.439,0,-6.3772,-6.3875,-6.3864,-6.3934,-6.4048,-6.4025,-6.4137,-6.4148,-6.4178,-6.4248,-6.4202,-6.4268,-6.4243,-6.4307,-6.4295,-6.4401,-6.4416,-6.4416,-6.4412,-6.4421,-6.4421,-6.4443,-6.4431,-6.4398,-6.4396,-6.4395,-6.4394,0,-6.3981,-6.3978,-6.4098,-6.4127,-6.4137,-6.4219,-6.4243,-6.4308,-6.4308,-6.4397,-6.4416,-6.4416,-6.4489,-6.4478,-6.4558,-6.455,-6.4683,-6.4663,-6.4671,-6.4667,-6.476,-6.4751,-6.5061,-6.5101,-6.4822,-6.4825,-6.4827,0,-6.4118,-6.4197,-6.4235,-6.428,-6.4303,-6.4375,-6.4417,-6.4397,-6.4442,-6.4491,-6.455,-6.4619,-6.4674,-6.4793,-6.4799,-6.486,-6.4841,-6.4945,-6.485,-6.4856,-6.4843,-6.4839,-6.4846,-6.4964,-6.4968,-6.497,-6.4972,0,-6.4362,-6.4356,-6.442,-6.4484,-6.4536,-6.4584,-6.4627,-6.4666,-6.4649,-6.4702,-6.4778,-6.482,-6.4904,-6.4973,-6.503,-6.5047,-6.5007,-6.5002,-6.5027,-6.5037,-6.5039,-6.504,-6.4724,-6.4995,-6.4993,-6.4991,-6.499,-6.4989,-6.4539,-6.4607,-6.4645,-6.4717,-6.4748,-6.479,-6.4853,-6.4861,-6.4925,-6.4993,-6.4976,-6.5061,-6.5095,-6.5169,-6.5192,-6.5257,-6.5218,-6.5253,-6.5262,-6.5272,-6.5283,-6.5029,-6.5267,-6.5266,-6.5265,-6.5265,-6.5264,0,-6.4781,-6.4803,-6.487,-6.4933,-6.499,-6.4949,-6.4995,-6.5044,-6.5121,-6.5157,-6.5213,-6.5299,-6.5366,-6.5377,-6.544,-6.549,-6.5473,-6.5507,-6.5504,-6.5508,-6.5314,-6.5287,-6.552,-6.552,-6.552,-6.552,-6.552,-6.552,-6.4913,-6.5026,-6.5025,-6.5152,-6.5171,-6.5257,-6.5287,-6.5324,-6.5353,-6.5453,-6.5509,-6.5517,-6.5543,-6.5607,-6.5666,-6.5668,-6.5693,-6.5734,-6.5729,-6.5547,-6.5522,-6.5497,-6.5472,-6.574,-6.574,-6.5918,-6.5919,-6.592]}]]